STARLINK-35330, 65791

Orbit data source: Space-Track

STARLINK-35330, 65791 is a payload satellite owned by SpaceX/Seattle (US) in SSO that was launched on Fri, 26 Sep 2025 UTC via an FALCON 9 launch vehicle from the Air Force Western Test Range (AFWTR). Payload-class satellites include a variety of spacecraft equipped with specific instruments for various scientific and technological missions. These include communications satellites like Starlink; space stations such as the ISS; scientific satellites like the Hubble; Earth observation satellites from companies like Planet Labs, Umbra, and HawkEye 360; GPS; miniature CubeSats for education and research; and military/defense satellites.

Loading next visibility...
Identifier
65791, 2025-218A
Orbit
SSO
Country
Flag of USUS
Related business
Manufacturer
SpaceX/Seattle
Mission
Operational Commercial Communications
Bus & Motor
STARLINK V2MO, Unknown motor
Mass
575 kg wet, ~530 kg dry
Launch date (UTC)
2025-09-26 (1 month ago)
Launch vehicle
FALCON 9
Launch site
Air Force Western Test Range (AFWTR)
Object type
Payload
Rocket body
Debris
Shape & HBR
Box + 2 Pan, 17.7 m
Radar Cross Section
36.964 m²

Expand to show TLE details & history
Last TLE update: 2 days ago

TLE from 2 days ago
0 STARLINK-35330
1 65791U 25218A   25312.19211364  .00004247  00000-0  29820-3 0  9997
2 65791  97.6010 173.1254 0002260  87.5736 272.5749 15.05666057  6689
Epoch: 2025-11-08T04:36Z
TLE epoch observation values (Epoch: 2025-11-08T04:36:38.618Z)
Latitude
-0.00007°
Longitude
56.33924°
Altitude
552.457 km
Speed
7.586 km/s
True Right ascension
11h 32m 30s
True Declination
0° 00' 00"
Sunlit
Object was in daylight at epoch
Visualization orbit readout
Latitude
Unknown
Longitude
Unknown
Altitude
Unknown
Speed
Unknown
Apparent Right ascension
Unknown
Apparent Declination
Unknown
Sunlit
N/A
Visualization observer readout
Local Sidereal Time
03:04:54
Azimuth
Unknown
Elevation
Unknown
Doppler factor
Unknown
Orbital elements
Apogee altitude
548.02 km
Perigee altitude
544.89 km
Semi-major axis
6,924.592 km
Eccentricity
0.00023
Inclination
97.601°
RAAN
173.1254°
Arg. of periapsis
87.5736°
True anomaly
272.54903°
Mean anomaly
272.5749°
Eccentric anomaly
272.56196°
Mean motion
3.76662 °/min
Orbital period
95.58 mins
BSTAR
0.0002982
Loading maneuver chart data...
Computing Atmospheric mass density...
Loading historical data...
Loading historical data...
Loading historical data...
Loading historical data...
Loading historical data...
Loading historical data...
Loading historical data...

Documentation

Showing up to 5 results
|